Latest Coastal Weather Observations for Cato Island

IDQ60701

Issued at 9:12 am EST Friday 19 August 2022 (issued every 10 minutes, with the page automatically refreshed every 10 minutes)

About coastal observations | Map of coastal stations | Coastal observations for QLD | Marine services | Other Formats
Station Details ID: 200601 Name: CATO ISLAND Lat: -23.25 Lon: 155.54 Height: 6.3 m
Data from the previous 72 hours. | See also: Recent months for locations in Queensland
Date/Time
EST
Wind Sea
Height
m
Swell Vis
km
Cloud Weather Temp
°C
Press
MSL
hPa
Rain since
9am
mm
Dir  Spd
kts
Gust
kts
Height
m
Period
s
Dir
19/09:00am ESE 4 5 - - - - - - - 21.9 1019.0 -
19/08:30am SSE 4 5 - - - - - - - 21.6 1019.0 -
19/08:00am SSE 5 7 - - - - - - - 21.0 1019.0 -
19/07:30am SSE 5 7 - - - - - - - 20.8 1018.7 -
19/07:00am SE 5 8 - - - - - - - 20.6 1018.6 -
19/06:30am S 6 7 - - - - - - - 19.8 1018.5 -
19/06:00am S 5 7 - - - - - - - 19.7 1018.2 -
19/05:30am S 6 8 - - - - - - - 19.8 1018.0 -
19/05:00am SSE 5 7 - - - - - - - 19.9 1017.7 -
19/04:30am SE 5 7 - - - - - - - 20.0 1017.6 -
19/04:00am SE 6 8 - - - - - - - 20.0 1017.5 -
19/03:30am SE 7 9 - - - - - - - 19.9 1017.6 -
19/03:00am SE 7 9 - - - - - - - 19.9 1017.4 -
19/02:30am SE 8 11 - - - - - - - 19.9 1017.3 -
19/02:00am SSE 7 9 - - - - - - - 20.1 1017.5 -
19/01:30am SSE 9 11 - - - - - - - 20.1 1017.6 -
19/01:00am S 10 11 - - - - - - - 20.0 1017.7 -
19/12:30am S 9 11 - - - - - - - 20.0 1018.1 -
19/12:00am S 9 11 - - - - - - - 20.1 1018.3 -
 
Date/Time
EST
Wind Sea
Height
m
Swell Vis
km
Cloud Weather Temp
°C
Press
MSL
hPa
Rain since
9am
mm
Dir  Spd
kts
Gust
kts
Height
m
Period
s
Dir
18/11:30pm S 10 12 - - - - - - - 20.1 1018.3 -
18/11:00pm S 9 11 - - - - - - - 20.1 1018.4 -
18/10:30pm S 8 10 - - - - - - - 20.0 1018.2 -
18/10:00pm SSE 8 9 - - - - - - - 20.2 1018.0 -
18/09:30pm S 7 9 - - - - - - - 20.1 1018.0 -
18/09:00pm S 9 10 - - - - - - - 20.1 1018.1 -
18/08:30pm S 8 9 - - - - - - - 20.1 1018.2 -
18/08:00pm S 7 9 - - - - - - - 20.1 1018.3 -
18/07:30pm SSE 9 11 - - - - - - - 20.3 1018.1 -
18/07:00pm SSE 9 11 - - - - - - - 20.5 1017.8 -
18/06:30pm S 10 12 - - - - - - - 20.4 1017.4 -
18/06:00pm SSE 11 13 - - - - - - - 20.3 1017.1 -
18/05:30pm SSE 12 13 - - - - - - - 20.4 1016.9 -
18/05:00pm SSE 12 14 - - - - - - - 20.5 1016.8 -
18/04:30pm S 12 14 - - - - - - - 20.5 1016.8 -
18/04:00pm S 12 16 - - - - - - - 20.7 1016.7 -
18/03:30pm S 13 15 - - - - - - - 20.7 1016.7 -
18/03:00pm SSE 13 16 - - - - - - - 20.7 1016.5 -
18/02:30pm SSE 14 16 - - - - - - - 21.0 1016.4 -
18/02:00pm SSE 12 16 - - - - - - - 20.7 1016.5 -
18/01:30pm SSE 14 17 - - - - - - - 20.3 1016.7 -
18/01:00pm SSE 13 19 - - - - - - - 20.9 1016.9 -
18/12:30pm SSE 13 16 - - - - - - - 21.0 1017.1 -
18/12:00pm SSE 14 16 - - - - - - - 21.0 1017.2 -
18/11:30am SSE 15 17 - - - - - - - 20.9 1017.5 -
18/11:00am SSE 15 17 - - - - - - - 20.9 1017.7 -
18/10:30am SSE 14 16 - - - - - - - 21.0 1017.9 -
18/10:00am SSE 15 17 - - - - - - - 20.9 1018.0 -
18/09:30am SSE 16 18 - - - - - - - 20.7 1018.3 -
18/09:00am S 15 19 - - - - - - - 20.6 1018.3 -
18/08:30am S 15 18 - - - - - - - 20.5 1018.0 -
18/08:00am SSE 17 21 - - - - - - - 20.3 1017.8 -
18/07:30am S 17 20 - - - - - - - 20.3 1017.7 -
18/07:00am S 18 23 - - - - - - - 19.8 1017.4 -
18/06:30am S 17 20 - - - - - - - 19.8 1016.9 -
18/06:00am SSE 17 21 - - - - - - - 19.9 1016.5 -
18/05:30am SSE 17 21 - - - - - - - 19.8 1016.2 -
18/05:00am SSE 18 22 - - - - - - - 19.8 1015.9 -
18/04:30am SSE 17 20 - - - - - - - 19.9 1015.6 -
18/04:00am S 18 21 - - - - - - - 19.8 1015.4 -
18/03:30am SSE 18 21 - - - - - - - 19.8 1015.2 -
18/03:00am SSE 19 23 - - - - - - - 19.8 1015.2 -
18/02:30am S 19 23 - - - - - - - 19.8 1015.4 -
18/02:00am S 19 22 - - - - - - - 20.0 1015.5 -
18/01:30am S 19 21 - - - - - - - 19.9 1015.7 -
18/01:00am S 17 20 - - - - - - - 20.0 1015.9 -
18/12:30am S 18 21 - - - - - - - 19.9 1016.1 -
18/12:00am SSE 16 21 - - - - - - - 19.9 1016.1 -
 
Date/Time
EST
Wind Sea
Height
m
Swell Vis
km
Cloud Weather Temp
°C
Press
MSL
hPa
Rain since
9am
mm
Dir  Spd
kts
Gust
kts
Height
m
Period
s
Dir
17/11:30pm SSE 18 21 - - - - - - - 20.0 1016.3 -
17/11:00pm S 18 21 - - - - - - - 19.8 1016.3 -
17/10:30pm S 17 20 - - - - - - - 19.8 1016.3 -
17/10:00pm SSE 17 22 - - - - - - - 19.7 1016.2 -
17/09:30pm S 19 22 - - - - - - - 19.5 1016.0 -
17/09:00pm S 18 23 - - - - - - - 19.5 1015.8 -
17/08:30pm S 18 23 - - - - - - - 19.4 1015.6 -
17/08:00pm S 19 21 - - - - - - - 19.4 1015.4 -
17/07:30pm S 19 23 - - - - - - - 19.3 1015.3 -
17/07:00pm S 18 22 - - - - - - - 19.2 1014.7 -
17/06:30pm S 19 23 - - - - - - - 19.2 1014.3 -
17/06:00pm S 17 21 - - - - - - - 19.1 1014.1 -
17/05:30pm SSW 17 22 - - - - - - - 19.0 1013.9 -
17/05:00pm S 18 23 - - - - - - - 19.2 1013.7 -
17/04:30pm S 21 25 - - - - - - - 18.8 1013.7 -
17/04:01pm S 17 28 - - - - - - - 19.5 1013.4 -
17/04:00pm S 17 21 - - - - - - - 19.6 1013.4 -
17/03:30pm S 18 25 - - - - - - - 19.4 1013.1 -
17/03:00pm SSE 15 19 - - - - - - - 19.7 1013.1 -
17/02:30pm SSE 15 20 - - - - - - - 19.7 1013.0 -
17/02:00pm S 16 19 - - - - - - - 20.2 1012.9 -
17/01:30pm S 16 19 - - - - - - - 20.1 1013.0 -
17/01:00pm S 17 22 - - - - - - - 20.3 1013.2 -
17/12:30pm S 18 21 - - - - - - - 20.0 1013.5 -
17/12:00pm SSW 17 22 - - - - - - - 19.8 1013.6 -
17/11:30am SSW 17 21 - - - - - - - 19.7 1013.7 -
17/11:24am SSW 13 21 - - - - - - - 19.5 1013.7 -
17/11:00am WSW 9 11 - - - - - - - 20.0 1013.8 -
17/10:30am WNW 9 11 - - - - - - - 18.5 1013.8 -
17/10:00am NW 12 14 - - - - - - - 17.6 1014.0 -
17/09:30am NW 17 21 - - - - - - - 16.2 1014.0 -
17/09:00am W 22 29 - - - - - - - 15.3 1014.0 -
17/08:30am W 24 30 - - - - - - - 14.6 1013.7 -
17/08:07am WSW 20 28 - - - - - - - 14.7 1013.6 -
17/08:00am SW 24 30 - - - - - - - 14.9 1013.6 -
17/07:30am WSW 35 46 - - - - - - - 14.5 1012.8 -
17/07:16am WSW 30 43 - - - - - - - 13.2 1011.8 -
17/07:14am WSW 29 43 - - - - - - - 14.4 1012.3 -
17/07:10am SW 26 43 - - - - - - - 15.1 1012.4 -
17/07:05am SSW 23 33 - - - - - - - 17.5 1012.2 -
17/07:00am S 17 28 - - - - - - - 18.8 1011.9 -
17/06:57am S 15 28 - - - - - - - 18.9 1011.8 -
17/06:30am SSE 14 16 - - - - - - - 19.9 1011.3 -
17/06:00am SSW 8 10 - - - - - - - 18.4 1011.6 -
17/05:30am SSW 10 12 - - - - - - - 18.4 1011.3 -
17/05:00am SSW 7 9 - - - - - - - 17.8 1010.9 -
17/04:30am SW 2 4 - - - - - - - 17.3 1010.8 -
17/04:00am CALM 0 2 - - - - - - - 17.9 1010.6 -
17/03:30am WNW 4 6 - - - - - - - 16.9 1010.6 -
17/03:00am NNW 2 4 - - - - - - - 17.6 1010.3 -
17/02:30am N 7 11 - - - - - - - 17.4 1010.4 -
17/02:00am N 14 16 - - - - - - - 16.8 1010.7 -
17/01:30am N 21 24 - - - - - - - 17.1 1011.4 -
17/01:00am N 21 24 - - - - - - - 16.2 1011.8 -
17/12:30am N 11 22 - - - - - - - 16.8 1012.2 -
17/12:00am ESE 1 3 - - - - - - - 18.2 1011.9 -
 
Date/Time
EST
Wind Sea
Height
m
Swell Vis
km
Cloud Weather Temp
°C
Press
MSL
hPa
Rain since
9am
mm
Dir  Spd
kts
Gust
kts
Height
m
Period
s
Dir
16/11:30pm E 16 19 - - - - - - - 17.4 1011.6 -
16/11:06pm S 11 24 - - - - - - - 18.6 1011.3 -
16/11:00pm WSW 3 13 - - - - - - - 19.3 1011.4 -
16/10:30pm CALM 0 3 - - - - - - - 19.0 1011.8 -
16/10:00pm CALM 0 3 - - - - - - - 19.0 1011.9 -
16/09:30pm CALM 0 2 - - - - - - - 19.9 1011.8 -
16/09:00pm CALM 0 3 - - - - - - - 19.6 1011.7 -
16/08:30pm CALM 0 2 - - - - - - - 20.3 1011.9 -
16/08:00pm CALM 0 2 - - - - - - - 20.5 1011.5 -
16/07:30pm CALM 0 3 - - - - - - - 20.8 1011.5 -
16/07:00pm CALM 0 3 - - - - - - - 20.6 1011.2 -
16/06:30pm CALM 0 3 - - - - - - - 20.7 1010.9 -
16/06:00pm S 1 4 - - - - - - - 20.6 1010.7 -
16/05:30pm SSW 1 2 - - - - - - - 20.3 1010.3 -
16/05:00pm SSW 1 6 - - - - - - - 20.6 1010.2 -
16/04:30pm SSW 6 8 - - - - - - - 20.9 1010.0 -
16/04:00pm SW 5 7 - - - - - - - 21.2 1009.8 -
16/03:30pm SSW 5 7 - - - - - - - 21.6 1009.7 -
16/03:00pm SW 5 6 - - - - - - - 21.9 1009.6 -
16/02:30pm SW 5 7 - - - - - - - 22.3 1009.9 -
16/02:00pm SSW 6 8 - - - - - - - 22.2 1010.0 -
16/01:30pm SSW 6 8 - - - - - - - 22.6 1010.1 -
16/01:00pm SW 6 8 - - - - - - - 22.2 1010.5 -
16/12:30pm SSW 6 8 - - - - - - - 22.7 1011.0 -
16/12:00pm SSW 5 6 - - - - - - - 22.3 1011.4 -
16/11:30am S 5 7 - - - - - - - 22.3 1011.7 -
16/11:00am SSW 5 7 - - - - - - - 22.0 1012.2 -
16/10:30am S 6 7 - - - - - - - 22.0 1012.4 -
16/10:00am SSW 5 8 - - - - - - - 21.9 1012.7 -
16/09:30am SW 5 7 - - - - - - - 22.0 1013.2 -

Other formats

Comma delimited format used in spreadsheet applications
http://www.bom.gov.au/fwo/IDQ60701/IDQ60701.94394.axf

JavaScript Object Notation format (JSON) in row-major order
http://www.bom.gov.au/fwo/IDQ60701/IDQ60701.94394.json

Data quality

Most of these data are generated automatically and are frequently updated. Quality checks on data are not normally performed. It is possible for incorrect values to appear. Refer to information at About Latest Weather Observations and please check the disclaimer before using these data.